SCOUT B-1 R/B, 8861

Orbit data source: Space-Track

SCOUT B-1 R/B, 8861 is space debris in SSO originally from a launch on Sat, 22 May 1976 UTC launched from the Air Force Western Test Range (AFWTR). Debris objects in space refer to the collection of defunct objects orbiting the Earth. Examples of debris include non-operational satellites, rocket bodies, and fragments generated from explosions, collisions, or faulty payload assembly.

Loading next visibility...
Identifier
8861, 1976-047B
Orbit
SSO
Country
Flag of USUS
Related business
Manufacturer
Thiokol/TE
Mission
Spacecraft
Bus & Motor
STAR 20, Unknown motor
Mass
31 kg wet, 31 kg dry
Launch date (UTC)
1976-05-22 (50 years ago)
Launch vehicle
Unknown
Launch site
Air Force Western Test Range (AFWTR)
Object type
Payload
Rocket body
Debris
Shape & HBR
Unknown
Radar Cross Section
Medium (>0.1 m² and <1 m²)

Expand to show TLE details & history
Last TLE update: 2 days ago

TLE from 2 days ago
0 SCOUT B-1 R/B
1  8861U 76047B   26171.39031053  .00000009  00000-0  66327-4 0  9995
2  8861  99.8514  36.7476 0041925 147.1651  26.6229 13.66764785494962
Epoch: 2026-06-20T09:22Z
TLE epoch observation values (Epoch: 2026-06-20T09:22:02.829Z)
Latitude
5.82936°
Longitude
168.64076°
Altitude
985.771 km
Speed
7.373 km/s
True Right ascension
14h 31m 01s
True Declination
5° 47' 45"
Sunlit
Object was in full shadow at epoch
Visualization orbit readout
Latitude
Unknown
Longitude
Unknown
Altitude
Unknown
Speed
Unknown
Apparent Right ascension
Unknown
Apparent Declination
Unknown
Sunlit
N/A
Visualization observer readout
Local Sidereal Time
00:29:41
Azimuth
Unknown
Elevation
Unknown
Doppler factor
Unknown
Orbital elements
Apogee altitude
1,039.464 km
Perigee altitude
977.527 km
Semi-major axis
7,386.633 km
Eccentricity
0.00419
Inclination
99.8514°
RAAN
36.7476°
Arg. of periapsis
147.1651°
True anomaly
26.8392°
Mean anomaly
26.6229°
Eccentric anomaly
26.73095°
Mean motion
3.4188 °/min
Orbital period
105.3 mins
BSTAR
0.000066327
Loading maneuver chart data...
Computing Atmospheric mass density...
Loading historical data...
Loading historical data...
Loading historical data...
Loading historical data...
Loading historical data...
Loading historical data...
Loading historical data...
Other satellites on launch #47 in the year 1976 (1976-05-22 UTC)

Documentation

Showing up to 5 results
|